This is the latest recevied weather packets stored in our database for station/object WC4PEM-8. If no packets are shown the sender has not sent any weather packets the latest 10 day(s).
| Time | Temp. | Humidity | Pressure | Rain* | Wind** | Luminosity | Snow |
|---|---|---|---|---|---|---|---|
| 1777392488 | 27.22° C | 65% | 1020.1 hPa | 0 mm | - | - | - |
| 1777392438 | 27.22° C | 65% | 1020.1 hPa | 0 mm | - | - | - |
| 1777392378 | 27.22° C | 65% | 1020.1 hPa | 0 mm | - | - | - |
| 1777392078 | 27.22° C | 63% | 1020.3 hPa | 0 mm | - | - | - |
| 1777391778 | 26.67° C | 64% | 1020.4 hPa | 0 mm | - | - | - |
| 1777391658 | 27.22° C | 65% | 1020.4 hPa | 0 mm | - | - | - |
| 1777391619 | 27.22° C | 65% | 1020.4 hPa | 0 mm | - | - | - |
| 1777391478 | 27.22° C | 65% | 1020.4 hPa | 0 mm | - | - | - |
| 1777391178 | 26.67° C | 66% | 1020.4 hPa | 0 mm | - | - | - |
| 1777390878 | 26.67° C | 67% | 1020.5 hPa | 0 mm | - | - | - |
| 1777390578 | 26.67° C | 67% | 1020.5 hPa | 0 mm | - | - | - |
| 1777390278 | 26.11° C | 67% | 1020.5 hPa | 0 mm | - | - | - |
| 1777389978 | 26.11° C | 69% | 1020.5 hPa | 0 mm | - | - | - |
| 1777389678 | 26.11° C | 69% | 1020.5 hPa | 0 mm | - | - | - |
| 1777389378 | 25.56° C | 71% | 1020.5 hPa | 0 mm | - | - | - |
| 1777389078 | 25.56° C | 72% | 1020.4 hPa | 0 mm | - | - | - |
| 1777388778 | 25.56° C | 72% | 1020.4 hPa | 0 mm | - | - | - |
| 1777388478 | 25.56° C | 72% | 1020.4 hPa | 0 mm | - | - | - |
| 1777388178 | 25.56° C | 73% | 1020.4 hPa | 0 mm | - | - | - |
| 1777387878 | 25° C | 74% | 1020.5 hPa | 0 mm | - | - | - |
| 1777387578 | 25° C | 76% | 1020.3 hPa | 0 mm | - | - | - |
| 1777387449 | 24.44° C | 78% | 1020.2 hPa | 0 mm | - | - | - |
| 1777387278 | 24.44° C | 78% | 1020.2 hPa | 0 mm | - | - | - |
| 1777386978 | 24.44° C | 77% | 1020.3 hPa | 0 mm | - | - | - |
| 1777386837 | 23.89° C | 79% | 1020.2 hPa | 0 mm | - | - | - |
* Rain latest hour (hover to see other rain measurements)
** Current wind speed in m/s (hover to see current wind gust speed)